Location: Go?cza
(50.3372°N, 19.9313°E)
Time: 15:41:22
(UTC+00:00)

deb Chang Zheng 4 - Visible Passes

Search period start: 04 October 2024 00:00
Search period end: 14 October 2024 00:00
Orbit: 773 x 801 km, 98.5° (Epoch: 03 October)

Date Brightness Start Highest point End Pass type
(mag) Time Alt. Az. Time Alt. Az. Time Alt. Az.
04 Oct ? 04:11:56 10° NNE 04:17:06 54° E 04:22:14 10° S visible
04 Oct ? 17:19:04 10° W 17:19:53 10° W 17:20:41 10° WNW visible
05 Oct ? 03:41:51 10° NNE 03:46:32 31° E 03:51:10 10° SSE visible
05 Oct ? 16:45:23 10° SW 16:49:00 19° W 16:52:40 10° NW visible
06 Oct ? 03:12:13 10° NE 03:15:47 18° E 03:19:21 10° SE visible
08 Oct ? 03:49:57 10° NNE 03:54:47 36° E 03:59:37 10° SSE visible
08 Oct ? 16:54:04 10° SW 16:57:17 16° W 17:00:31 10° NW visible
09 Oct ? 03:20:05 10° NE 03:24:02 21° E 03:27:59 10° SE visible
10 Oct ? 02:51:15 10° ENE 02:53:08 12° E 02:55:01 10° ESE visible
11 Oct ? 03:57:53 10° NNE 04:02:54 42° E 04:07:52 10° SSE visible
11 Oct ? 17:02:44 10° WSW 17:05:25 14° W 17:08:07 10° NW visible
12 Oct ? 03:27:52 10° NE 03:32:09 24° E 03:36:23 10° SE visible
12 Oct ? 16:30:19 10° SSW 16:34:31 25° W 16:38:46 10° NW visible
13 Oct ? 02:58:33 10° NE 03:01:13 14° E 03:03:54 10° ESE visible
